Regional Weather Roundup
Issued by NWS

Home | Current Version | Previous Version | Graphics & Text | Print | Product List | Glossary On
Versions: 1 2 3 4 5 6 7 8 9 10 11 12 13 14 15 16 17 18 19 20 21 22 23 24 25 26 27 28 29 30 31 32 33 34 35 36 37 38 39 40 41 42 43 44 45 46 47 48 49 50
000
ASUS45 KSLC 281810
RWRUT

UTAH REGIONAL WEATHER ROUNDUP
NATIONAL WEATHER SERVICE SALT LAKE CITY UT
1200 PM MDT THU AUG 28 2014

UTZ001>011-023>025-281900-

NORTHERN UTAH

CITY           SKY/WX    TMP DP  RH WIND       PRES   REMARKS
HILL AFB       SUNNY     73  51  46 VRB2      30.26S
LOGAN          SUNNY     72  53  51 N5        30.23F
OGDEN          SUNNY     75  48  38 E3        30.23F
PROVO AIRPORT  MOSUNNY   70  52  52 VRB5      30.27
SALT LAKE CITY MOSUNNY   76  49  38 SW9       30.21F
VERNAL         MOSUNNY   62  54  74 MISG      30.28F
WENDOVER       SUNNY     75  46  35 E6        30.22F
HEBER CITY     SUNNY     59  52  77 CALM      30.32F
WEST JORDAN    SUNNY     75  55  50 SE7       30.25F

$$

UTZ012>022-026-027-281900-

SOUTHERN UTAH

CITY           SKY/WX    TMP DP  RH WIND       PRES   REMARKS
BRYCE CANYON   SUNNY     66  41  40 E3        30.42F
CEDAR CITY     SUNNY     76  40  27 VRB3      30.29F
MILFORD        SUNNY     77  44  30 S8        30.26F
MOAB/CYNLANDS  SUNNY     75  47  36 CALM      30.20F
PRICE          SUNNY     70  47  43 S5        30.28F
ST GEORGE      CLEAR     81  48  32 CALM      30.15F

$$

REGIONAL REPORTS     COLORADO/ARIZONA

CITY           SKY/WX    TMP DP  RH WIND       PRES   REMARKS
CRAIG, CO      PTSUNNY   61  51  70 NW7       30.32S
GRAND JUNCTION MOSUNNY   68  53  58 SE7       30.26F
RIFLE          PTSUNNY   60  52  74 CALM      30.30S
MONTROSE       CLOUDY    65  49  56 SE7       30.33F
CORTEZ         MOSUNNY   71  46  40 NW13G23   30.28S
PAGE, AZ       SUNNY     78  45  30 CALM      30.21F
GRAND CANYON   SUNNY     73  37  27 N8G15     30.36F
KINGMAN        SUNNY     89  38  16 N5        30.15F
FLAGSTAFF      SUNNY     70  39  32 VRB3      30.37F

$$

REGIONAL REPORTS    NEVADA/IDAHO/WYOMING

CITY           SKY/WX    TMP DP  RH WIND       PRES   REMARKS
LAS VEGAS, NV  SUNNY     90  39  16 S3        30.03F
ELY            SUNNY     76  33  21 VRB6      30.33F
ELKO           SUNNY     78  37  22 VRB3      30.25F
POCATELLO, ID  SUNNY     80  46  30 W8        30.20F
BURLEY         SUNNY     81  47  30 VRB3      30.16F
EVANSTON, WY   MOSUNNY   66  50  56 SW8       30.37S
ROCK SPRINGS   SUNNY     64  49  57 W8        30.32F

$$



USA.gov is the U.S. government's official web portal to all federal, state and local government web resources and services.